Wind_Speed
5 7 9 10 9 10 12 14 16 17 18 19 19 19 19 18 17 16 18 22 22 23 25 27 28 30 31 31 32 33 33 34 35 35 36 37 38 39 41 41 42 43 43 43
4 6 6 7 7 9 12 14 15 17 18 19 20 20 20 19 19 18 19 21 22 23 25 27 28 28 29 30 31 31 32 32 33 34 35 36 37 38 39 40 40 41 41 41
1 2 4 4 5 7 10 12 14 16 17 18 19 19 18 19 19 19 20 21 22 23 25 26 27 28 28 29 29 29 30 31 32 33 34 35 35 36 36 37 37 37 38 38
4 4 3 3 5 6 9 11 14 15 16 17 17 18 18 18 19 19 19 20 21 22 23 24 26 26 27 27 27 28 28 29 29 30 30 31 32 33 33 33 34 34 35 36
5 6 5 7 9 10 11 13 15 16 17 18 17 17 16 15 16 16 17 17 18 20 21 22 23 24 24 24 25 25 25 26 26 27 28 29 29 29 29 30 31 32 33 33
8 9 9 11 12 13 14 14 16 16 17 16 16 15 14 13 13 14 14 15 16 17 19 20 21 22 22 22 23 23 24 24 24 24 24 24 25 25 26 27 28 29 28 28
10 11 12 13 14 15 16 16 16 16 15 14 13 12 11 11 12 13 14 14 14 15 16 16 17 18 19 20 20 21 21 21 21 21 21 22 22 23 23 24 25 24 24 22
11 12 13 14 15 15 16 15 15 14 12 12 11 11 11 10 10 11 12 13 13 13 14 14 15 16 17 17 18 18 18 19 19 19 20 20 21 21 20 20 20 19 18 17
11 12 13 14 15 15 15 14 14 13 12 11 10 10 9 9 9 9 10 10 11 12 12 13 14 15 15 15 16 16 17 17 17 18 18 17 17 17 16 15 15 14 13 13
11 12 13 15 16 16 16 15 13 13 12 11 10 10 9 8 8 8 8 8 9 10 11 12 13 14 14 15 15 15 15 15 15 15 14 13 13 13 12 12 11 11 11 10
10 12 14 16 17 17 17 16 14 13 12 11 10 9 8 8 7 7 7 7 8 9 10 11 11 12 12 13 14 14 14 14 13 12 11 11 11 11 10 10 9 9 9 9
11 13 15 17 18 18 17 17 15 14 12 11 11 10 9 8 8 8 8 8 8 8 9 10 10 11 11 11 12 12 11 11 10 10 10 9 9 9 8 8 8 8 7 7
12 14 16 18 19 19 18 17 16 14 13 12 11 11 10 9 9 9 9 8 8 8 9 9 9 9 9 9 10 10 10 10 10 9 9 8 8 7 7 7 7 6 6 6
12 14 17 18 19 19 18 18 16 15 14 13 12 12 11 11 10 10 9 9 8 8 9 9 9 8 8 8 9 9 9 9 9 8 7 7 6 6 6 5 5 5 5 5
11 14 16 18 19 19 19 18 17 16 14 14 13 13 13 12 12 11 10 10 10 10 10 9 9 8 8 8 8 7 7 7 7 6 6 5 5 5 5 5 4 4 5 5
11 14 16 18 19 19 19 18 17 16 15 15 14 14 14 13 13 12 12 12 12 11 11 10 9 8 8 8 7 6 6 6 5 5 4 4 4 4 4 4 3 3 4 4
10 13 15 18 19 19 19 18 17 16 16 16 16 15 15 15 14 14 14 14 14 12 11 10 9 8 7 7 6 5 4 4 3 4 4 4 4 3 3 3 3 3 4 4
9 12 14 17 19 19 19 19 18 17 17 17 16 16 16 16 16 16 17 16 15 14 12 11 9 8 7 6 5 4 3 3 3 3 3 3 3 3 2 2 2 3 4 5
7 10 13 16 18 19 19 19 18 18 17 17 17 17 17 17 17 17 18 18 17 16 14 13 11 10 8 6 5 4 3 2 2 2 2 2 2 2 2 2 2 3 4 5
6 9 12 15 17 18 18 18 18 18 18 18 18 17 17 18 18 18 19 19 18 17 17 16 15 13 11 9 7 6 4 3 3 2 1 1 1 2 2 2 3 3 4 5
4 8 10 13 16 17 18 18 18 18 18 18 18 18 18 18 18 19 19 20 19 19 18 18 17 16 13 11 9 8 7 6 4 3 2 2 2 2 2 2 3 3 4 4
3 6 9 12 14 16 18 18 18 18 18 18 18 18 18 18 19 19 19 19 20 20 19 19 17 16 15 13 12 11 9 8 7 6 5 5 4 4 3 3 3 3 3 4
2 5 8 11 13 15 17 17 18 18 17 17 18 18 18 18 19 19 19 19 20 20 20 19 18 17 15 15 14 13 11 9 8 8 7 6 6 5 5 4 4 4 4 5
3 4 7 9 12 14 15 16 17 17 17 17 17 17 18 18 18 18 19 19 19 20 20 20 19 18 17 16 15 14 13 12 11 10 10 9 8 8 7 7 6 6 6 6
4 4 6 9 11 12 14 15 16 16 16 16 16 16 17 17 17 17 18 18 19 19 19 19 19 19 19 18 17 15 14 14 14 13 12 11 11 10 10 9 8 8 8 8
6 5 6 8 10 11 12 14 14 15 15 15 15 15 15 15 15 16 17 17 18 18 18 18 18 18 18 18 17 17 16 16 16 15 14 13 12 12 11 10 10 9 9 9
9 7 7 8 9 10 11 12 13 13 14 14 14 14 14 14 14 15 15 16 17 17 17 17 17 17 17 17 17 17 17 17 16 15 15 14 13 12 12 11 11 10 10 10
Wind_Direction
203 208 212 217 227 240 254 263 270 274 276 281 285 283 285 285 279 268 262 256 255 257 260 262 264 265 266 266 268 269 270 271 273 274 276 278 279 281 283 284 286 288 289 289
186 210 216 232 249 258 266 274 280 280 278 281 283 282 282 279 277 278 274 267 266 264 263 264 266 266 267 269 270 272 273 274 275 276 277 279 280 282 284 286 287 289 289 291
184 224 245 253 277 285 289 288 290 291 289 287 286 284 283 280 279 278 274 269 266 265 265 265 267 268 270 271 272 273 274 275 276 277 278 279 281 284 286 288 289 291 292 293
7 336 319 318 336 324 312 304 300 299 299 296 294 289 284 282 281 280 276 270 266 265 266 267 268 270 271 272 273 273 275 276 277 278 279 281 283 285 287 289 290 291 292 294
15 5 356 348 346 337 327 318 310 306 305 303 299 296 291 287 283 278 275 272 269 267 269 269 268 268 269 270 272 273 275 277 278 280 282 284 286 287 289 290 292 293 295 297
20 12 6 353 343 338 331 325 319 315 312 310 306 300 296 291 284 277 274 274 272 270 270 271 271 271 272 273 274 275 277 279 281 283 285 286 287 288 290 292 295 297 298 299
12 8 2 354 349 342 339 333 326 321 317 314 311 306 299 293 285 280 277 275 274 272 272 272 273 273 273 274 275 276 277 279 281 283 284 286 288 291 293 295 297 299 301 302
13 10 4 358 354 347 342 337 333 329 326 322 317 313 306 300 294 287 282 277 275 274 273 273 274 273 273 274 275 276 277 279 281 284 285 286 289 292 295 298 301 304 306 309
16 12 7 3 358 352 348 346 343 340 337 333 329 324 315 309 303 296 290 284 279 277 276 277 278 277 275 275 276 276 277 279 282 284 284 286 289 293 297 303 308 313 317 323
19 13 9 5 1 360 359 356 353 350 346 341 339 335 327 320 313 304 299 292 285 283 283 283 282 281 279 278 277 276 277 278 280 282 284 286 289 294 301 308 314 320 326 333
21 16 12 9 6 5 3 2 359 357 354 351 347 345 339 332 324 317 312 305 298 295 293 292 290 287 284 281 279 279 278 277 280 282 283 285 290 297 306 310 315 320 326 336
24 17 14 12 10 9 8 7 5 3 1 0 358 355 351 346 339 333 328 320 313 308 305 303 299 294 289 285 283 281 279 279 281 283 282 285 290 298 305 309 315 321 328 336
25 19 15 13 12 11 11 11 11 11 11 11 9 6 1 355 347 340 334 328 324 319 316 312 307 303 298 293 288 284 282 282 284 283 282 283 288 295 302 307 313 321 330 338
25 20 17 15 14 14 14 15 16 18 18 17 17 15 10 4 358 354 352 347 340 332 327 323 318 312 308 303 296 290 286 285 285 281 279 281 285 292 299 306 314 322 333 340
26 21 18 16 15 16 16 17 19 20 21 20 18 16 13 10 7 4 1 355 348 341 334 329 325 321 316 312 306 298 292 288 283 279 274 273 279 288 296 304 314 324 334 342
26 21 18 17 17 18 18 20 21 21 22 21 20 18 16 15 13 11 6 -0 354 350 346 339 332 327 324 320 312 304 294 287 280 275 270 270 271 278 287 300 314 328 337 340
25 22 19 17 17 18 20 21 22 23 23 23 22 22 21 20 19 17 12 7 2 358 355 351 344 336 330 325 320 312 300 293 285 276 272 270 266 269 277 290 306 323 332 336
24 20 19 18 18 19 21 22 24 24 25 25 25 25 25 24 22 19 17 15 13 10 8 5 2 357 351 344 335 328 316 308 302 288 274 267 264 265 278 294 308 320 329 334
21 19 19 19 19 20 22 23 24 25 26 26 27 27 27 26 25 23 23 23 22 21 21 21 21 19 17 16 11 1 347 334 320 299 280 265 262 272 287 302 316 326 332 335
22 19 19 18 19 20 22 23 25 26 27 28 28 29 29 29 28 28 28 28 28 29 31 32 33 33 35 36 35 32 28 22 10 350 326 314 302 305 306 309 321 329 333 339
18 18 18 17 18 20 21 23 24 26 27 29 30 30 30 30 30 31 31 31 32 33 34 35 35 36 38 40 43 44 44 41 37 35 34 30 17 357 344 340 341 342 342 348
0 10 14 16 17 18 20 21 23 24 26 28 29 30 31 32 32 32 32 33 34 35 36 36 36 37 40 42 45 46 45 44 45 46 46 43 33 22 14 7 3 3 7 11
323 355 6 11 14 15 17 19 21 22 24 26 28 29 31 33 34 34 34 35 36 37 37 38 38 39 40 42 44 45 45 47 48 47 46 42 37 34 33 32 32 34 39 38
278 332 354 4 9 12 14 16 18 20 22 24 26 28 30 33 34 34 35 36 37 38 39 40 40 40 40 42 44 44 45 47 48 48 48 47 47 47 49 51 52 55 55 52
260 306 338 353 1 6 9 11 15 17 20 22 24 26 29 31 33 33 35 37 38 38 39 40 41 41 42 44 45 46 48 50 51 51 51 51 51 53 55 57 59 60 60 56
253 283 317 338 349 356 1 5 9 12 15 18 20 23 26 28 29 31 34 36 37 38 39 39 40 41 42 44 46 48 50 51 51 51 52 53 55 56 58 60 61 60 59 58
251 270 294 316 333 344 351 356 1 4 8 12 14 17 20 23 24 27 30 33 34 35 36 37 39 40 42 44 46 47 49 49 49 50 51 53 54 55 57 59 60 60 58 55
Height
5752 5751 5751 5752 5753 5754 5755 5755 5755 5755 5755 5754 5754 5754 5754 5754 5753 5753 5754 5755 5756 5757 5758 5759 5759 5760 5760 5760 5760 5761 5761 5761 5760 5760 5759 5758 5757 5756 5754 5752 5750 5748 5745 5742
5752 5751 5751 5752 5752 5753 5753 5753 5752 5751 5751 5750 5750 5749 5749 5748 5748 5748 5748 5749 5750 5750 5751 5751 5752 5752 5752 5752 5752 5752 5752 5751 5751 5751 5750 5749 5748 5746 5744 5742 5739 5737 5734 5731
5752 5751 5751 5751 5751 5750 5750 5749 5748 5747 5747 5745 5744 5744 5743 5743 5743 5742 5742 5743 5743 5743 5743 5743 5743 5744 5744 5744 5744 5743 5743 5743 5742 5741 5741 5740 5738 5736 5734 5732 5729 5727 5724 5721
5751 5752 5750 5751 5749 5748 5747 5745 5744 5742 5741 5740 5739 5738 5737 5736 5736 5736 5736 5735 5736 5736 5736 5737 5736 5736 5736 5736 5736 5735 5735 5735 5734 5733 5732 5731 5729 5727 5725 5723 5720 5717 5714 5711
5751 5750 5749 5748 5747 5745 5744 5742 5740 5738 5736 5734 5733 5731 5731 5731 5731 5730 5730 5729 5729 5729 5729 5729 5729 5729 5729 5729 5729 5728 5728 5727 5726 5725 5724 5723 5721 5719 5717 5714 5712 5709 5705 5702
5750 5749 5748 5748 5745 5742 5742 5738 5736 5734 5731 5730 5728 5727 5727 5726 5726 5725 5725 5724 5724 5724 5723 5723 5723 5723 5723 5722 5722 5722 5721 5720 5719 5718 5717 5715 5714 5712 5709 5707 5704 5700 5697 5693
5750 5749 5747 5745 5742 5740 5739 5736 5732 5730 5727 5726 5724 5724 5723 5721 5721 5720 5720 5719 5719 5719 5718 5718 5717 5717 5716 5716 5716 5715 5714 5714 5712 5711 5710 5709 5707 5705 5703 5700 5697 5694 5690 5686
5750 5748 5748 5744 5741 5739 5736 5732 5729 5726 5724 5723 5721 5720 5718 5717 5716 5716 5715 5715 5714 5714 5713 5713 5713 5712 5711 5711 5710 5709 5708 5708 5707 5706 5704 5703 5701 5699 5697 5694 5691 5688 5685 5681
5751 5750 5746 5743 5740 5737 5734 5730 5727 5724 5722 5720 5719 5717 5715 5714 5713 5712 5711 5711 5710 5710 5709 5709 5708 5707 5706 5706 5705 5704 5703 5702 5701 5700 5699 5697 5696 5694 5692 5690 5687 5684 5681 5678
5750 5748 5745 5742 5739 5736 5732 5729 5726 5723 5721 5719 5717 5715 5713 5712 5710 5709 5708 5707 5707 5706 5705 5704 5703 5702 5701 5701 5700 5699 5698 5697 5696 5695 5694 5693 5691 5690 5688 5686 5684 5681 5679 5676
5750 5748 5745 5742 5738 5735 5731 5728 5725 5722 5719 5717 5715 5713 5711 5710 5708 5707 5706 5704 5703 5702 5701 5700 5699 5698 5697 5696 5695 5694 5693 5692 5692 5691 5690 5689 5688 5686 5685 5683 5681 5679 5677 5675
5750 5748 5745 5742 5738 5734 5731 5727 5724 5721 5718 5716 5714 5712 5710 5708 5706 5705 5703 5702 5700 5699 5698 5696 5695 5694 5692 5691 5690 5689 5689 5688 5688 5687 5686 5686 5685 5683 5682 5681 5679 5677 5676 5674
5750 5748 5745 5741 5738 5734 5731 5727 5724 5721 5718 5716 5713 5711 5709 5707 5705 5703 5701 5699 5698 5696 5695 5693 5691 5690 5688 5687 5686 5685 5685 5685 5684 5684 5683 5683 5682 5681 5680 5679 5678 5676 5674 5673
5750 5748 5745 5742 5738 5735 5731 5728 5724 5721 5718 5716 5713 5711 5709 5706 5704 5702 5699 5698 5696 5694 5692 5690 5688 5687 5685 5684 5683 5682 5682 5681 5681 5681 5680 5680 5679 5679 5678 5677 5676 5675 5673 5672
5750 5748 5746 5742 5739 5735 5732 5728 5725 5722 5719 5717 5714 5711 5709 5706 5703 5701 5698 5696 5694 5692 5689 5687 5686 5684 5683 5681 5680 5679 5679 5678 5678 5678 5678 5678 5677 5677 5676 5676 5675 5674 5673 5671
5751 5749 5746 5743 5740 5736 5733 5729 5726 5723 5720 5717 5715 5712 5709 5706 5703 5700 5698 5695 5692 5690 5687 5685 5683 5682 5680 5679 5678 5677 5676 5676 5676 5676 5676 5676 5676 5675 5675 5674 5674 5673 5672 5671
5751 5749 5747 5744 5741 5738 5734 5731 5728 5724 5721 5718 5715 5712 5709 5706 5703 5700 5697 5694 5691 5688 5685 5683 5681 5680 5678 5677 5676 5675 5674 5674 5674 5674 5674 5674 5674 5674 5674 5673 5673 5672 5671 5670
5751 5750 5748 5745 5742 5739 5735 5732 5729 5726 5723 5720 5717 5713 5710 5707 5704 5701 5698 5694 5690 5687 5685 5682 5680 5678 5677 5675 5674 5673 5673 5673 5673 5673 5673 5673 5673 5673 5672 5672 5671 5671 5670 5669
5751 5750 5748 5746 5743 5740 5737 5734 5731 5727 5724 5721 5718 5715 5712 5709 5705 5702 5698 5695 5691 5688 5685 5682 5680 5678 5676 5675 5674 5673 5672 5672 5672 5672 5672 5672 5672 5672 5671 5671 5671 5670 5669 5668
5751 5750 5749 5747 5744 5741 5738 5735 5732 5729 5726 5723 5720 5717 5714 5711 5707 5704 5700 5697 5694 5690 5687 5684 5681 5679 5677 5675 5674 5673 5672 5672 5671 5671 5671 5671 5671 5671 5670 5670 5670 5669 5668 5667
5751 5750 5749 5748 5745 5743 5740 5737 5734 5731 5728 5725 5722 5719 5716 5713 5709 5706 5703 5700 5696 5693 5690 5686 5684 5681 5679 5677 5676 5675 5673 5673 5672 5672 5671 5671 5671 5671 5670 5670 5669 5668 5668 5667
5750 5750 5749 5748 5746 5743 5741 5738 5735 5732 5729 5726 5723 5721 5718 5715 5712 5708 5705 5702 5699 5696 5692 5690 5687 5685 5683 5680 5678 5677 5676 5675 5674 5673 5672 5672 5671 5671 5670 5669 5669 5668 5667 5666
5750 5750 5749 5748 5746 5744 5742 5739 5736 5734 5731 5728 5725 5723 5720 5717 5714 5711 5709 5706 5702 5699 5696 5693 5690 5688 5686 5684 5681 5680 5678 5677 5676 5675 5674 5673 5672 5671 5671 5670 5669 5668 5668 5667
5748 5749 5748 5747 5746 5744 5742 5740 5738 5735 5732 5730 5727 5724 5722 5719 5716 5714 5711 5708 5705 5702 5699 5697 5694 5691 5689 5686 5684 5683 5681 5680 5678 5677 5676 5675 5674 5673 5672 5671 5670 5669 5669 5668
5747 5747 5747 5747 5746 5744 5743 5741 5738 5736 5734 5731 5729 5726 5724 5721 5719 5717 5714 5711 5708 5706 5703 5700 5698 5695 5693 5690 5688 5686 5684 5683 5681 5680 5678 5677 5676 5675 5674 5673 5672 5671 5670 5670
5745 5746 5746 5746 5745 5744 5743 5741 5739 5737 5735 5732 5730 5728 5725 5723 5721 5719 5716 5714 5711 5709 5706 5704 5702 5699 5696 5694 5692 5690 5688 5686 5684 5683 5682 5680 5679 5678 5677 5676 5675 5674 5673 5672
5742 5743 5744 5744 5743 5743 5742 5740 5739 5737 5735 5733 5731 5729 5727 5725 5723 5721 5718 5716 5714 5712 5710 5707 5705 5703 5700 5698 5696 5694 5691 5690 5688 5687 5685 5684 5683 5681 5680 5679 5678 5677 5676 5675